FW4012 Weather Reports


Display with metric or nautical units.
time (UTC)temp
F
wind
direction
speed
MPH
gust
MPH
rain 1hr
in
rain 24hr
in
rain mn
in
humidity
%
barometer
mb
20260505080227 54 346 4.0 9.0 0.12 1.61 0.41 92 1011.8
20260505075727 54 17 3.0 11.0 0.20 1.61 0.41 91 1011.7
20260505075228 54 345 5.0 11.0 0.24 1.61 0.41 91 1011.6
20260505074727 54 323 7.0 10.0 0.31 1.61 0.41 91 1011.7
20260505074228 54 309 7.0 10.0 0.43 1.57 0.40 91 1011.6
20260505073727 54 336 4.0 9.0 0.63 1.57 0.40 91 1011.8
20260505073228 54 360 6.0 10.0 0.75 1.57 0.40 91 1011.7
20260505072729 54 347 5.0 10.0 0.83 1.57 0.40 91 1011.8
20260505072228 54 321 5.0 8.0 0.91 1.57 0.40 91 1011.9
20260505071730 54 5 4.0 8.0 0.91 1.54 0.39 91 1012.0
20260505071249 54 321 3.0 9.0 0.94 1.54 0.39 91 1011.7
20260505070727 53 337 5.0 9.0 0.94 1.50 0.38 90 1011.9
20260505070224 53 346 4.0 6.0 0.91 1.46 0.37 90 1012.1
20260505065723 53 18 3.0 6.0 0.91 1.42 0.36 90 1012.1
20260505065253 53 9 4.0 6.0 0.87 1.38 0.35 90 1012.0
20260505064751 53 313 3.0 4.0 0.79 1.26 0.32 90 1012.0
20260505064230 53 301 2.0 5.0 0.71 1.14 0.29 89 1012.0
20260505063728 53 278 1.0 5.0 0.51 0.94 0.24 89 1012.0
20260505063228 53 355 3.0 5.0 0.43 0.83 0.21 89 1012.0
20260505062724 53 360 3.0 6.0 0.35 0.71 0.19 89 1011.7
20260505062242 53 11 3.0 8.0 0.35 0.67 0.17 89 1011.7
20260505061741 53 355 4.0 8.0 0.31 0.63 0.16 89 1011.7
20260505061301 53 22 4.0 8.0 0.31 0.59 0.15 88 1011.7
20260505060739 53 355 4.0 8.0 0.31 0.55 0.14 88 1011.7
20260505060240 53 302 3.0 5.0 0.35 0.55 0.14 88 1011.7
20260505055745 53 360 3.0 5.0 0.35 0.51 0.13 88 1011.7
20260505055244 53 341 3.0 8.0 0.35 0.51 0.13 88 1011.6
20260505054803 53 319 4.0 8.0 0.31 0.47 0.12 88 1011.6
20260505054241 53 355 3.0 8.0 0.28 0.43 0.11 87 1011.4
20260505053736 53 336 4.0 8.0 0.31 0.43 0.11 87 1011.3
20260505053235 53 344 4.0 10.0 0.28 0.39 0.10 87 1011.3
20260505052732 53 334 4.0 10.0 0.24 0.35 0.09 87 1011.1
20260505052232 53 317 4.0 8.0 0.20 0.31 0.08 87 1011.2
20260505051731 54 332 1.0 11.0 0.24 0.31 0.08 86 1011.2
20260505051231 54 302 4.0 11.0 0.20 0.28 0.07 86 1011.2
20260505050732 54 311 4.0 11.0 0.16 0.24 0.06 86 1011.2
20260505050232 54 327 5.0 11.0 0.16 0.20 0.05 86 1011.1
20260505041732 55 9 1.0 2.0 0.08 0.08 0.02 85 1010.9
20260505041232 55 9 0.0 0.0 0.08 0.08 0.02 84 1010.9
20260505040733 55 5 0.0 0.0 0.04 0.04 0.01 83 1011.0
20260505040231 55 9 0.0 0.0 0.04 0.04 0.01 82 1011.0
20260505035731 55 5 0.0 0.0 0.00 0.00 0.00 82 1011.0
20260505035228 55 5 0.0 0.0 0.00 0.00 0.00 82 1011.1
20260505034727 56 5 0.0 0.0 0.00 0.00 0.00 81 1011.0
20260505034227 56 5 0.0 0.0 0.00 0.00 0.00 80 1011.0
20260505033746 56 5 0.0 0.0 0.00 0.00 0.00 79 1010.9
20260505033226 56 5 0.0 1.0 0.00 0.00 0.00 78 1010.9
20260505032726 56 5 0.0 1.0 0.00 0.00 0.00 77 1011.0
20260505032250 56 5 0.0 1.0 0.00 0.00 0.00 77 1011.0
20260505031729 56 5 1.0 1.0 0.00 0.00 0.00 77 1011.0
20260505031228 56 5 0.0 1.0 0.00 0.00 0.00 77 1011.1
20260505030728 56 5 0.0 1.0 0.00 0.00 0.00 76 1011.2
20260505030226 57 5 0.0 1.0 0.00 0.00 0.00 76 1011.2
20260505025725 57 5 0.0 3.0 0.00 0.00 0.00 75 1011.1
20260505025224 57 5 1.0 3.0 0.00 0.00 0.00 75 1011.1
20260505024724 57 159 0.0 3.0 0.00 0.00 0.00 75 1011.1
20260505024250 57 280 0.0 3.0 0.00 0.00 0.00 73 1011.2
20260505023749 57 280 2.0 4.0 0.00 0.00 0.00 73 1011.2
20260505023249 57 275 2.0 7.0 0.00 0.00 0.00 73 1011.3
20260505022750 57 257 2.0 7.0 0.00 0.00 0.00 73 1011.5
20260505022250 57 275 1.0 4.0 0.00 0.00 0.00 73 1011.6
20260505021738 57 273 2.0 4.0 0.00 0.00 0.00 74 1011.7
20260505021302 57 283 2.0 4.0 0.00 0.00 0.00 75 1011.8
20260505020740 57 263 2.0 4.0 0.00 0.00 0.00 76 1011.8
20260505020240 57 274 1.0 2.0 0.00 0.00 0.00 75 1011.9
20260505015738 57 265 1.0 3.0 0.00 0.00 0.00 73 1012.0
20260505015238 57 265 1.0 3.0 0.00 0.00 0.00 73 1012.0
20260505014738 57 267 1.0 3.0 0.00 0.00 0.00 73 1012.0
20260505014237 57 226 1.0 3.0 0.00 0.00 0.00 73 1012.0
20260505013735 57 226 2.0 4.0 0.00 0.00 0.00 73 1012.2
20260505013235 57 238 2.0 5.0 0.00 0.00 0.00 73 1012.2
20260505012732 57 250 2.0 5.0 0.00 0.00 0.00 73 1012.2
20260505012248 57 261 1.0 6.0 0.00 0.00 0.00 74 1012.3
20260505011727 57 266 2.0 5.0 0.00 0.00 0.00 74 1012.3
20260505011228 57 242 1.0 4.0 0.00 0.00 0.00 74 1012.4
20260505010726 57 242 1.0 4.0 0.00 0.00 0.00 74 1012.5
20260505010254 57 236 1.0 4.0 0.00 0.00 0.00 74 1012.5
20260505005732 57 242 2.0 6.0 0.00 0.00 0.00 75 1012.5
20260505005232 56 231 3.0 6.0 0.00 0.00 0.00 76 1012.6
20260505004733 56 226 0.0 4.0 0.00 0.00 0.00 78 1012.7
20260505004234 56 238 1.0 4.0 0.00 0.00 0.00 79 1012.8
20260505003732 56 200 1.0 2.0 0.00 0.00 0.00 80 1013.0
20260505003231 56 200 1.0 4.0 0.00 0.00 0.00 80 1013.2
20260505002730 56 200 1.0 4.0 0.00 0.00 0.00 81 1013.2
20260505002228 56 215 1.0 5.0 0.00 0.00 0.00 81 1013.3
20260505001746 56 296 1.0 4.0 0.00 0.00 0.00 82 1013.4
20260505001253 56 170 0.0 0.0 0.00 0.00 0.00 81 1013.4
20260505000750 55 113 0.0 0.0 0.00 0.00 0.00 81 1013.5
20260505000223 55 113 0.0 0.0 0.00 0.00 0.00 81 1013.6
20260504235741 55 113 0.0 1.0 0.00 0.00 0.00 81 1013.8
20260504235304 55 113 0.0 2.0 0.00 0.00 0.00 81 1013.8
20260504234827 55 113 0.0 2.0 0.00 0.00 0.00 81 1013.9
20260504233732 55 113 0.0 2.0 0.00 0.00 0.00 81 1013.9
20260504233233 55 113 1.0 2.0 0.00 0.00 0.00 81 1013.9
20260504232731 55 232 0.0 0.0 0.00 0.00 0.00 81 1013.9
20260504232229 55 232 0.0 0.0 0.00 0.00 0.00 81 1014.1
20260504231752 55 232 0.0 0.0 0.00 0.00 0.00 81 1014.0
20260504231231 55 232 0.0 0.0 0.00 0.00 0.00 81 1014.0
20260504230730 55 232 0.0 0.0 0.00 0.00 0.00 81 1014.1
20260504230250 55 232 0.0 1.0 0.00 0.00 0.00 81 1014.2
20260504225728 55 232 0.0 1.0 0.00 0.00 0.00 81 1014.3
20260504225228 55 232 0.0 1.0 0.00 0.00 0.00 81 1014.3
20260504224758 55 232 0.0 1.0 0.00 0.00 0.00 81 1014.4
20260504224237 55 232 0.0 0.0 0.00 0.00 0.00 81 1014.5
20260504223758 55 232 0.0 2.0 0.00 0.00 0.00 81 1014.5
20260504223252 55 232 0.0 2.0 0.00 0.00 0.00 81 1014.5
20260504222730 55 232 0.0 0.0 0.00 0.00 0.00 81 1014.6
20260504222259 55 232 0.0 0.0 0.00 0.00 0.00 81 1014.6
20260504221737 55 232 0.0 1.0 0.00 0.00 0.00 81 1014.6
20260504221237 55 232 0.0 1.0 0.00 0.00 0.00 81 1014.6
20260504220737 55 232 0.0 0.0 0.00 0.00 0.00 81 1014.6
20260504220257 55 232 0.0 0.0 0.00 0.00 0.00 81 1014.7
20260504215737 55 232 0.0 1.0 0.00 0.00 0.00 81 1014.7
20260504215237 55 232 0.0 1.0 0.00 0.00 0.00 81 1014.8
20260504214731 55 232 0.0 0.0 0.00 0.00 0.00 81 1014.8
20260504214231 54 232 0.0 1.0 0.00 0.00 0.00 81 1014.9
20260504213752 54 232 0.0 1.0 0.00 0.00 0.00 80 1014.9
20260504213230 54 232 0.0 1.0 0.00 0.00 0.00 80 1015.1
20260504212729 54 232 0.0 1.0 0.00 0.00 0.00 80 1015.0
20260504212227 55 232 0.0 0.0 0.00 0.00 0.00 79 1015.0
20260504211734 55 232 0.0 0.0 0.00 0.00 0.00 79 1015.0
20260504211235 55 232 0.0 2.0 0.00 0.00 0.00 79 1015.3
20260504210734 55 232 0.0 2.0 0.00 0.00 0.00 79 1015.3
20260504210255 55 232 0.0 1.0 0.00 0.00 0.00 78 1015.3
20260504205750 55 232 0.0 1.0 0.00 0.00 0.00 78 1015.3
20260504205238 56 232 0.0 1.0 0.00 0.00 0.00 78 1015.2
20260504204737 56 232 0.0 1.0 0.00 0.00 0.00 77 1015.2
20260504204236 56 232 0.0 1.0 0.00 0.00 0.00 77 1015.3
20260504203734 56 232 0.0 0.0 0.00 0.00 0.00 77 1015.3
20260504203232 56 232 0.0 0.0 0.00 0.00 0.00 76 1015.4
20260504202733 56 232 0.0 0.0 0.00 0.00 0.00 76 1015.3
20260504202233 57 232 0.0 0.0 0.00 0.00 0.00 76 1015.2
20260504201732 57 232 0.0 3.0 0.00 0.00 0.00 76 1015.1
20260504201227 57 232 0.0 3.0 0.00 0.00 0.00 76 1015.1
20260504200726 57 232 0.0 0.0 0.00 0.00 0.00 75 1015.1
20260504200246 57 232 0.0 0.0 0.00 0.00 0.00 74 1015.0
20260504195725 58 232 0.0 0.0 0.00 0.00 0.00 74 1015.1
20260504195225 58 232 0.0 1.0 0.00 0.00 0.00 74 1015.0
20260504194726 58 232 0.0 1.0 0.00 0.00 0.00 74 1015.0
20260504194255 58 232 0.0 1.0 0.00 0.00 0.00 74 1014.9
20260504193732 58 232 0.0 0.0 0.00 0.00 0.00 73 1014.8
20260504193230 58 232 0.0 0.0 0.00 0.00 0.00 72 1014.8
20260504192728 59 232 0.0 0.0 0.00 0.00 0.00 72 1014.8
20260504192222 59 232 0.0 1.0 0.00 0.00 0.00 71 1014.8
20260504191742 59 232 0.0 1.0 0.00 0.00 0.00 71 1014.7
20260504191240 59 232 0.0 0.0 0.00 0.00 0.00 70 1014.7
20260504190809 60 232 0.0 0.0 0.00 0.00 0.00 69 1014.6
20260504190246 60 232 0.0 0.0 0.00 0.00 0.00 68 1014.6
20260504185746 61 232 0.0 0.0 0.00 0.00 0.00 67 1014.6
20260504185247 61 232 0.0 0.0 0.00 0.00 0.00 67 1014.6
20260504184747 62 232 0.0 0.0 0.00 0.00 0.00 66 1014.5
20260504184248 62 232 0.0 0.0 0.00 0.00 0.00 65 1014.5
20260504183750 63 232 0.0 0.0 0.00 0.00 0.00 64 1014.5
20260504183239 63 232 0.0 1.0 0.00 0.00 0.00 64 1014.4
20260504182806 64 232 0.0 1.0 0.00 0.00 0.00 61 1014.5
20260504182244 64 232 0.0 1.0 0.00 0.00 0.00 61 1014.4
20260504181745 64 232 0.0 1.0 0.00 0.00 0.00 59 1014.4
20260504181244 65 232 0.0 1.0 0.00 0.00 0.00 59 1014.4
20260504180804 65 232 0.0 1.0 0.00 0.00 0.00 58 1014.4
20260504180240 65 232 0.0 2.0 0.00 0.00 0.00 57 1014.3
20260504175741 66 232 0.0 3.0 0.00 0.00 0.00 56 1014.4
20260504175239 66 232 0.0 3.0 0.00 0.00 0.00 54 1014.6
20260504174739 66 232 1.0 3.0 0.00 0.00 0.00 53 1014.4
20260504174238 66 232 1.0 2.0 0.00 0.00 0.00 51 1014.4
20260504173756 67 232 1.0 4.0 0.00 0.00 0.00 51 1014.4
20260504173235 67 232 1.0 4.0 0.00 0.00 0.00 50 1014.5
20260504172735 67 248 2.0 4.0 0.00 0.00 0.00 50 1014.4
20260504172234 67 240 2.0 4.0 0.00 0.00 0.00 49 1014.4
20260504171733 67 237 2.0 5.0 0.00 0.00 0.00 49 1014.4
20260504171232 67 240 3.0 5.0 0.00 0.00 0.00 48 1014.4
20260504170738 68 190 2.0 5.0 0.00 0.00 0.00 48 1014.5
20260504170237 68 196 3.0 6.0 0.00 0.00 0.00 49 1014.6
20260504160238 69 216 3.0 7.0 0.00 0.00 0.00 50 1014.6
20260504150734 70 223 4.0 10.0 0.00 0.00 0.00 47 1015.0
20260504150303 70 261 4.0 9.0 0.00 0.00 0.00 47 1015.0
20260504141235 71 259 4.0 8.0 0.00 0.00 0.00 49 1015.5
20260504140755 69 250 5.0 10.0 0.00 0.00 0.00 48 1015.6
20260504140241 70 238 5.0 11.0 0.00 0.00 0.00 46 1015.5
20260504130737 68 262 6.0 10.0 0.00 0.00 0.00 47 1015.9
20260504130236 68 270 6.0 10.0 0.00 0.00 0.00 47 1016.0
20260504120231 69 254 7.0 11.0 0.00 0.00 0.00 44 1016.6
20260504110238 67 178 4.0 8.0 0.00 0.00 0.00 50 1017.0
20260504100248 66 280 4.0 8.0 0.00 0.00 0.00 45 1017.3
20260504081735 64 157 2.0 3.0 0.00 0.00 0.00 50 1016.9
20260504081233 64 157 1.0 3.0 0.00 0.00 0.00 49 1017.0
20260504080725 64 157 1.0 5.0 0.00 0.00 0.00 51 1017.0